Retour au catalogue

USA 498

ActifMilitaireLEO
NORAD 63350·PAYLOAD·🇺🇸 United States

Lancé Mar 24, 2025 depuis Cape Canaveral Space Force Station

Loading…

Prochains Passages (prochaines 24 heures)

TLE

PériméSource: Mike McCants

Époque: Aug 11, 2026, 21:20 UTC

1 63350U 25060A   26223.88940501 0.00000000  00000-0  00000-0 0    03
2 63350  63.4342 149.9187 0089000 177.0783 182.9217 13.41001349    06

Suivez USA 498 en temps réel avec AllMySat

Download on the App Store